Weather History for Red Bluff, CA

Change the Weather History Date:

Friday, March 8, 2013

  Actual Average Record
Temperature  
Mean Temperature 52 °F -  
Max Temperature 68 °F 65 °F 82 °F (1979)
Min Temperature 35 °F 44 °F 31 °F (1969)
Degree Days  
Heating Degree Days 14    
Growing Degree Days 2 (Base 50)    
Moisture  
Dew Point 29 °F    
Average Humidity 44    
Maximum Humidity 79    
Minimum Humidity 9    
Precipitation  
Precipitation 0.00 in - - ()
Sea Level Pressure  
Sea Level Pressure 29.88 in    
Wind  
Wind Speed 9 mph (NNW)    
Max Wind Speed 16 mph    
Max Gust Speed 21 mph    
Visibility 10 miles    
Events      
Averages and records for this station are not official NWS values.
T = Trace of Precipitation, MM = Missing Value Source: NWS Daily Summary

Daily Weather History Graph

Daily Weather History Graph

Search for Another Location

Airport:

Trip Planner

Search our weather history database for the weather conditions in past years. The results will help you decide how hot, cold, wet, or windy it might be!

Date:

Astronomy

Mar. 08, 2013 Rise Set
Actual Time 6:31 AM PST 6:08 PM PST
Civil Twilight 6:04 AM PST 6:35 PM PST
Nautical Twilight 5:32 AM PST 7:07 PM PST
Astronomical Twilight 5:01 AM PST 7:39 PM PST
Moon 4:19 AM PST (3/8) 3:09 PM PST (3/8)
Length of Visible Light 12h 31m
Length of Day
11h 37m
Waning Crescent, 11% of the Moon is Illuminated
Mar 8
Waning Crescent
Mar 11
New
Mar 19
First Quarter
Mar 27
Full
Apr 2
Last Quarter

Hourly Weather History & Observations

Time (PST) Temp. Windchill Dew Point Humidity Pressure Visibility Wind Dir Wind Speed Gust Speed Precip Events Conditions
12:54 AM 37.9 °F 32.7 °F 32.0 °F 79% 29.91 in 10.0 mi North 6.9 mph - N/A   Clear
1:54 AM 39.0 °F 34.0 °F 30.9 °F 73% 29.90 in 10.0 mi North 6.9 mph - N/A   Clear
2:54 AM 37.9 °F 32.7 °F 30.0 °F 73% 29.88 in 10.0 mi NNW 6.9 mph - N/A   Clear
3:54 AM 37.9 °F 32.1 °F 30.0 °F 73% 29.86 in 10.0 mi NNW 8.1 mph - N/A   Clear
4:54 AM 37.0 °F 31.6 °F 30.0 °F 76% 29.87 in 10.0 mi North 6.9 mph - N/A   Clear
5:54 AM 36.0 °F 30.3 °F 28.9 °F 76% 29.87 in 10.0 mi North 6.9 mph - N/A   Clear
6:54 AM 36.0 °F 30.3 °F 30.0 °F 79% 29.87 in 10.0 mi North 6.9 mph - N/A   Clear
7:54 AM 44.1 °F 41.5 °F 32.0 °F 63% 29.88 in 10.0 mi North 4.6 mph - N/A   Clear
8:54 AM 53.1 °F - 32.0 °F 45% 29.88 in 10.0 mi North 11.5 mph - N/A   Clear
9:54 AM 57.0 °F - 28.9 °F 34% 29.88 in 10.0 mi North 16.1 mph - N/A   Clear
10:54 AM 59.0 °F - 28.9 °F 32% 29.87 in 10.0 mi North 15.0 mph - N/A   Clear
11:54 AM 62.1 °F - 28.9 °F 29% 29.86 in 10.0 mi NW 11.5 mph - N/A   Clear
12:54 PM 64.0 °F - 27.0 °F 25% 29.84 in 10.0 mi NNW 12.7 mph - N/A   Clear
1:54 PM 66.0 °F - 26.1 °F 22% 29.82 in 10.0 mi NNW 11.5 mph - N/A   Clear
2:54 PM 66.9 °F - 25.0 °F 21% 29.81 in 10.0 mi NNW 13.8 mph 18.4 mph N/A   Clear
3:54 PM 66.9 °F - 21.9 °F 18% 29.81 in 10.0 mi North 13.8 mph 20.7 mph N/A   Clear
4:54 PM 64.0 °F - 24.1 °F 22% 29.82 in 10.0 mi North 11.5 mph - N/A   Clear
5:54 PM 63.0 °F - 24.1 °F 23% 29.85 in 10.0 mi NW 6.9 mph - N/A   Clear
6:54 PM 59.0 °F - 26.1 °F 28% 29.88 in 10.0 mi WNW 10.4 mph - N/A   Clear
7:54 PM 57.0 °F - 28.9 °F 34% 29.92 in 10.0 mi Variable 6.9 mph - N/A   Clear
8:54 PM 53.1 °F - 32.0 °F 45% 29.94 in 10.0 mi NNW 6.9 mph - N/A   Clear
9:54 PM 53.1 °F - 32.0 °F 45% 29.98 in 10.0 mi NW 8.1 mph - N/A   Clear
10:54 PM 52.0 °F - 32.0 °F 47% 30.01 in 10.0 mi NW 9.2 mph - N/A   Clear
11:54 PM 48.9 °F - 32.0 °F 52% 30.04 in 10.0 mi NNE 4.6 mph - N/A   Clear